User: anonymous   Login
Location: Igri�s
(42.2144°N, 0.4320°W)
Time: 19:25:54
(UTC+00:00)
Language:

Meteor 1-5 Rocket - Orbit

View from above orbital plane
View from above orbital plane
View from above satellite
View from above satellite

Ground track
Ground track

The orbit data is extracted from the following two-line orbital elements,

1  4420U 70047B   20295.27351427 -.00000034 +00000-0 -24507-4 0  9998
2  4420 081.2321 217.7064 0087713 014.3146 346.0480 14.12083181590559
Epoch (UTC): 21 October 2020 06:33:51
Eccentricity: 0.0087713
inclination: 81.2321°
perigee height: 789 km
apogee height: 915 km
right ascension of ascending node: 217.7064°
argument of perigee: 14.3146°
revolutions per day: 14.12083181
mean anomaly at epoch: 346.0480°
orbit number at epoch: 59055

The dashed part of the orbit path shows where the satellite is in the earth's shadow,  

DLR